www.pogodaiklimat.ru

Погода и климат >> Архив погоды >> Австралия >> Квинсленд >> Остров Лоу


ПОГОДА на Острове Лоу

  • Прогноз погоды на Острове Лоу
  • Монитор погоды на Острове Лоу

АРХИВ ПОГОДЫ на Острове Лоу

Время (UTC), дата Ветер
(напр.,м/с)
 
Видим.   Явления Облачность Т
(С)
Тd
(С)
f
(%)
Тe
(С)
Тes
(С)
Комфортность P
(гПа)
Po
(гПа)
Тmin
(С)
Tmax
(С)
R
(мм)
R24
(мм)
S
(см)
08 19.04 ЮВ 10 н/о н/о +25.2 +21.1 78 +32 +32 очень
душно
1013.9 1013.5
11 19.04 Ю 8 н/о в посл. час дождь {туман} н/о +24.2 +21.5 85 +31 +31 очень
душно
1015.6 1015.2
14 19.04 ЮВ 8 н/о {туман} н/о +24.7 +21.6 83 +32 +32 очень
душно
1014.4 1014.0 +26.9
17 19.04 ЮВ 8 н/о в посл. час дождь {туман} н/о +24.5 +22.2 87 +32 +32 очень
душно
1012.3 1011.9
20 19.04 Ю 7 н/о н/о +25.2 +22.3 84 +33 +33 очень
душно
1012.8 1012.4
23 19.04 ЮВ 7 н/о {туман} н/о +25.6 +22.3 82 +33 +33 очень
душно
1014.6 1014.2
02 20.04 ЮВ 8 н/о н/о +26.7 +22.1 76 +35 +35 очень
душно
1013.4 1013.0 +23.1
05 20.04 ЮВ 8 н/о н/о +28.0 +22.2 71 +37 +37 очень
душно
1011.0 1010.6
08 20.04 ЮВ 10 н/о н/о +25.9 +21.6 77 +33 +33 очень
душно
1011.6 1011.2
11 20.04 ЮВ 7 н/о н/о +26.0 +21.7 77 +33 +33 очень
душно
1013.5 1013.1
14 20.04 Ю 7 н/о н/о +26.1 +21.5 76 +33 +33 очень
душно
1012.9 1012.5 +28.2
17 20.04 Ю 7 н/о н/о +25.7 +20.7 74 +32 +32 очень
душно
1011.4 1011.0
20 20.04 Ю 7 н/о н/о +25.7 +21.1 76 +32 +32 очень
душно
1011.8 1011.4
23 20.04 Ю 7 н/о н/о +26.3 +21.9 77 +34 +34 очень
душно
1013.3 1012.9
02 21.04 ЮВ 8 н/о н/о +27.7 +23.3 77 +37 +37 очень
душно
1012.1 1011.7 +25.3
05 21.04 ЮВ 8 н/о н/о +28.4 +23.3 74 +38 +38 очень
душно
1010.7 1010.3
08 21.04 ЮВ 9 н/о н/о +26.5 +23.2 82 +36 +36 очень
душно
1011.5 1011.1
11 21.04 ЮВ 8 н/о н/о +26.4 +23.1 82 +35 +35 очень
душно
1013.7 1013.3
14 21.04 ЮВ 8 н/о туман местами н/о +25.8 +23.3 86 +35 +35 очень
душно
1013.4 1013.0 +29.4
17 21.04 ЮВ 5 н/о {туман} н/о +25.5 +23.6 89 +35 +35 очень
душно
1012.1 1011.7
20 21.04 Ю 5 н/о {туман} н/о +25.7 +22.8 84 +34 +34 очень
душно
1012.3 1011.9
23 21.04 ЮВ 7 н/о {туман} н/о +26.2 +23.3 84 +35 +35 очень
душно
1013.8 1013.4
02 22.04 ЮВ 7 н/о в посл. час дождь {туман} н/о +28.0 +23.2 75 +38 +38 очень
душно
1012.8 1012.4 +21.4
05 22.04 ЮВ 7 н/о {туман} н/о +28.4 +23.5 75 +39 +39 очень
душно
1011.5 1011.1
08 22.04 В 6 н/о н/о +26.4 +23.5 84 +36 +36 очень
душно
1012.5 1012.1
11 22.04 ЮВ 8 н/о н/о +26.1 +23.4 85 +35 +35 очень
душно
1014.5 1014.1
14 22.04 ЮВ 5 н/о н/о +25.9 +22.8 83 +34 +34 очень
душно
1014.4 1014.0 +29.1
17 22.04 ЮВ 5 н/о н/о +25.8 +22.7 83 +34 +34 очень
душно
1013.2 1012.8
20 22.04 Ю 4 н/о н/о +25.4 +22.7 85 +33 +33 очень
душно
1013.6 1013.2
23 22.04 Ю 5 н/о н/о +26.3 +22.8 81 +35 +35 очень
душно
1014.8 1014.4
02 23.04 ЮВ 6 н/о н/о +29.0 +23.7 73 +40 +40 очень
душно
1014.0 1013.6 +25.4
05 23.04 В 7 н/о н/о +29.0 +22.7 69 +38 +38 очень
душно
1012.0 1011.6
08 23.04 В 7 н/о н/о +26.0 +23.3 85 +35 +35 очень
душно
1012.5 1012.1
11 23.04 ЮВ 9 н/о н/о +26.1 +23.0 83 +35 +35 очень
душно
1014.1 1013.7
14 23.04 ЮВ 5 н/о н/о +25.9 +22.8 83 +34 +34 очень
душно
1013.5 1013.1 +29.9
17 23.04 ЮВ 6 н/о н/о +26.0 +22.7 82 +34 +34 очень
душно
1012.2 1011.8
20 23.04 ЮВ 6 н/о н/о +25.9 +22.4 81 +34 +34 очень
душно
1012.5 1012.1
23 23.04 ЮВ 5 н/о н/о +26.4 +22.7 80 +35 +35 очень
душно
1013.9 1013.5
02 24.04 ЮВ 5 н/о н/о +29.0 +22.7 69 +38 +38 очень
душно
1012.6 1012.2 +25.5
05 24.04 В 7 н/о н/о +29.2 +23.4 71 +40 +40 очень
душно
1010.2 1009.8
08 24.04 В 7 н/о н/о +26.8 +23.7 83 +37 +37 очень
душно
1010.9 1010.5
11 24.04 В 6 н/о н/о +26.4 +23.3 83 +36 +36 очень
душно
1012.4 1012.0
14 24.04 ЮВ 6 н/о н/о +26.3 +23.6 85 +36 +36 очень
душно
1011.8 1011.4 +30.2
17 24.04 ЮВ 5 н/о н/о +25.8 +23.7 88 +35 +35 очень
душно
1010.0 1009.6
20 24.04 ЮВ 5 н/о в посл. час дождь {туман} н/о +25.1 +23.3 90 +34 +34 очень
душно
1010.8 1010.4
23 24.04 ЮВ 4 н/о {туман} н/о +26.2 +23.1 83 +35 +35 очень
душно
1012.2 1011.8
02 25.04 ЮВ 5 н/о н/о +28.4 +23.1 73 +38 +38 очень
душно
1011.5 1011.1 +24.8
05 25.04 ЮВ 5 н/о н/о +28.3 +23.7 76 +39 +39 очень
душно
1009.9 1009.5
08 25.04 ЮВ 4 н/о н/о +26.8 +23.5 82 +36 +36 очень
душно
1010.8 1010.4
11 25.04 ЮВ 2 н/о н/о +25.7 +23.2 86 +34 +34 очень
душно
1012.2 1011.8
14 25.04 ЮВ 6 н/о н/о +26.2 +23.5 85 +36 +36 очень
душно
1012.0 1011.6 +29.3
17 25.04 ЮВ 5 н/о н/о +26.1 +23.4 85 +35 +35 очень
душно
1010.7 1010.3
20 25.04 ЮВ 5 н/о н/о +26.0 +23.3 85 +35 +35 очень
душно
1010.9 1010.5
23 25.04 ЮВ 6 н/о н/о +26.6 +23.7 84 +36 +36 очень
душно
1012.8 1012.4
02 26.04 ЮВ 6 н/о н/о +28.5 +23.6 75 +39 +39 очень
душно
1011.8 1011.4 +25.7
05 26.04 ЮВ 5 н/о н/о +28.9 +23.6 73 +39 +39 очень
душно
1010.1 1009.7

 

Местоположение метеостанции Остров Лоу (Квинсленд, Австралия): широта -16.38 долгота 145.57 высота над уровнем моря 4 м.

В архиве по умолчанию представлена погода на Острове Лоу за последнюю неделю. Архивные данные за месяц целиком и за предыдущие месяцы, начиная с января 2011 года, Вы можете получить, выбрав интересующий диапазон дат из раскрывающегося списка и нажав кнопку "Ввод!".


*Определитесь, кто Вы:
робот инопланетянин человек

Внимание! Время в таблицах - всемирное. Для получения местного времени необходимо прибавить поправку, которая равна 10 ч.

Смотрите также архив погоды в соседних городах и на ближайших метеорологических станциях:

Погода в Кэрнсе (Квинсленд, Австралия) (59 км)
Погода на Арлингтон рифе (Квинсленд, Австралия) (70 км)
Погода в Марибе (Квинсленд, Австралия) (78 км)
Погода в Куктауне (Квинсленд, Австралия) (112 км)
Погода в Юг Джонстон (Квинсленд, Австралия) (143 км)
Погода на Мысе Флэттери (Квинсленд, Австралия) (159 км)
Погода в Палмервилле (Квинсленд, Австралия) (166 км)
Погода на Бугенвильском рифе (Квинсленд, Австралия) (192 км)
Погода на Холмс Рифе (Квинсленд, Австралия) (244 км)
Погода в Лусинде (Квинсленд, Австралия) (254 км)

Пояснения к столбцам:

Ветер - указаны скорость ветра в м/с - средняя за 10 мин, порывы в срок и между сроками (в фигурных скобках) и направление, откуда дует ветер: С - северный, СВ - северо-восточный, В - восточный, ЮВ - юго-восточный, Ю - южный, ЮЗ - юго-западный, З - западный, СЗ - северо-западный.
Видимость - горизонтальная дальность видимости в метрах или километрах. При видимости от 1 до 10 км при отсутствии осадков обычно наблюдается дымка, при ухудшении видимости до 1 км и менее - туман. В сухую погоду видимость может ухудшаться дымом, пылью или мглою.
Явления - указаны атмосферные явления, наблюдавшиеся в срок или в последний час перед сроком; фигурными скобками обозначены явления, наблюдавшиеся между сроками (за 1-3 часа до срока); квадратными скобками обозначены град или гололедные отложения с указанием их диаметра в мм.
Облачность - указаны через наклонную черту общая и нижняя облачность в баллах и высота нижней границы облаков в метрах; квадратными скобками обозначены формы облаков: Ci - перистые, Cs - перисто-слоистые, Cc - перисто-кучевые, Ac - высококучевые, As - высокослоистые, Sc - слоисто-кучевые, Ns - слоисто-дождевые, Cu - кучевые, Cb - кучево-дождевые. Подробнее классификацию облаков см. в Атласе облаков (PDF).
T - Температура воздуха - температура, измеренная на высоте 2 м над землей.
Td - Температура точки росы - температура, при понижении до которой содержащийся в воздухе водяной пар достигнет насыщения.
f - Относительная влажность воздуха - влажноcть воздуха, измеренная на высоте 2 м над землей.
Te - Эффективная температура - температура, которую ощущает одетый по сезону человек в тени. Характеристика душности погоды. При расчете учитывается влияние влажности воздуха и скорости ветра на теплоощущения человека.
Tes - Эффективная температура на солнце - температура, которую ощущает человек, с поправкой на солнечный нагрев. Характеристика знойности погоды. Зависит от высоты солнца над горизонтом, облачности и скорости ветра. Ночью, в пасмурную погоду, а также при ветре 12 м/с и более поправка равна нулю.
P - Атмосферное давление - приведенное к уровню моря атмосферное давление.
Po - Атмосферное давление - измеренное на уровне метеостанции атмосферное давление.
Tmin - Минимальная температура - минимум температуры воздуха на высоте 2 м над землей.
Tmax - Максимальная температура - максимум температуры воздуха на высоте 2 м над землей.
R - Количество осадков - Количество выпавших осадков за период времени, мм. При наведении курсора мыши на число - период времени, за который выпало указанное количество осадков.
R24 - Количество осадков - Количество выпавших осадков за 24 часа, мм.
S - Снежный покров - Высота снежного покрова, см. При наведении курсора мыши на число - состояние снежного покрова и степень покрытия местности в баллах.